Printer-friendly version

IAU Minor Planet Center

Minor Planet Center

MPEC 2008-G06 : 2008 FL7

The following Minor Planet Electronic Circular may be linked-to from your own Web pages, but must not otherwise be redistributed electronically.


Read MPEC 2008-G05 Read MPEC 2008-G07


M.P.E.C. 2008-G06                                Issued 2008 Apr. 1, 14:22 UT

     The Minor Planet Electronic Circulars contain information on unusual
         minor planets and routine data on comets.  They are published
   on behalf of Commission 20 of the International Astronomical Union by the
          Minor Planet Center, Smithsonian Astrophysical Observatory,
                          Cambridge, MA 02138, U.S.A.

             Prepared using the Tamkin Foundation Computer Network

                              MPC@CFA.HARVARD.EDU
          URL http://www.cfa.harvard.edu/iau/mpc.html  ISSN 1523-6714

                                   2008 FL7

Observations:
     K08F07L* C2008 03 31.44407 15 10 17.18 -04 32 23.8          20.3 V EG006G96
     K08F07L  C2008 03 31.45018 15 10 17.32 -04 32 48.1          20.3 V EG006G96
     K08F07L  C2008 03 31.45634 15 10 17.47 -04 33 11.8          20.6 V EG006G96
     K08F07L  C2008 03 31.46249 15 10 17.61 -04 33 35.2          20.3 V EG006G96
     K08F07L  C2008 03 31.48478 15 10 18.22 -04 35 01.1          21.0 V EG006G96
     K08F07L  C2008 03 31.48532 15 10 18.22 -04 35 03.4          20.9 V EG006G96
     K08F07L  C2008 03 31.48587 15 10 18.22 -04 35 05.2          20.5 V EG006G96
     K08F07L  C2008 03 31.48640 15 10 18.23 -04 35 07.8          21.3 V EG006G96
     K08F07L  C2008 04 01.44290 15 11 13.01 -05 34 16.6          20.8 V EG006G96
     K08F07L  C2008 04 01.44858 15 11 13.11 -05 34 36.6          21.3 V EG006G96
     K08F07L  C2008 04 01.45427 15 11 13.20 -05 34 57.2          20.7 V EG006G96
     K08F07L  C2008 04 01.45986 15 11 13.32 -05 35 16.6          21.0 V EG006G96

Observer details:
G96 Mt. Lemmon Survey.  Observer A. Boattini.  Measurers E. C. Beshore,
    A. Boattini, G. J. Garradd, A. R. Gibbs, A. D. Grauer, R. E. Hill,
    R. A. Kowalski, S. M. Larson, R. H. McNaught.  1.5-m reflector + CCD.

Orbital elements:
2008 FL7                                                 Earth MOID = 0.0351 AU
Epoch 2008 May 14.0 TT = JDT 2454600.5                  MPC
M  23.24660              (2000.0)            P               Q
n   0.32389642     Peri.  118.90048     -0.94481550     -0.32670860
a   2.0999000      Node    42.04321     +0.28658728     -0.86004333
e   0.5192800      Incl.    2.07007     +0.15871802     -0.39190172
P   3.04           H   24.5           G   0.15           U   9
Residuals in seconds of arc
080331 G96  0.4+  0.2+    080331 G96  0.5+  0.0     080401 G96  0.0   0.1-
080331 G96  0.3+  0.4-    080331 G96  0.3+  0.2-    080401 G96  0.2+  0.1+
080331 G96  0.2+  0.3-    080331 G96  0.1+  0.1+    080401 G96  0.1+  0.4-
080331 G96  0.0   0.0     080331 G96  0.0   0.4-    080401 G96  0.6+  0.0

Ephemeris:
2008 FL7                 a,e,i = 2.10, 0.52, 2                   q = 1.0095
Date    TT    R. A. (2000) Decl.     Delta      r     Elong.  Phase     V
2008 03 25    14 58.91   +05 00.9    0.0611   1.044   139.0    38.8    20.1
2008 03 27    15 03.68   +01 23.7    0.0678   1.051   139.9    37.7    20.3
2008 03 29    15 07.23   -01 34.4    0.0747   1.058   141.1    36.4    20.5
2008 03 31    15 09.83   -04 02.0    0.0819   1.065   142.3    35.0    20.6
2008 04 02    15 11.68   -06 05.5    0.0893   1.073   143.7    33.4    20.8
2008 04 04    15 12.92   -07 49.8    0.0969   1.081   145.3    31.8    21.0
2008 04 06    15 13.66   -09 18.6    0.105    1.090   147.0    30.0    21.1
2008 04 08    15 13.99   -10 34.8    0.113    1.099   148.7    28.2    21.2
2008 04 10    15 13.99   -11 40.6    0.121    1.109   150.5    26.4    21.3
2008 04 12    15 13.72   -12 37.7    0.129    1.119   152.5    24.5    21.4
2008 04 14    15 13.23   -13 27.5    0.138    1.129   154.4    22.6    21.5
2008 04 16    15 12.56   -14 11.0    0.147    1.139   156.4    20.6    21.6
2008 04 18    15 11.75   -14 49.0    0.156    1.150   158.5    18.7    21.7
2008 04 20    15 10.83   -15 22.5    0.165    1.162   160.5    16.7    21.8
2008 04 22    15 09.82   -15 51.8    0.175    1.173   162.6    14.8    21.9
2008 04 24    15 08.75   -16 17.6    0.185    1.185   164.8    12.9    22.0

Timothy B. Spahr             (C) Copyright 2008 MPC           M.P.E.C. 2008-G06

Read MPEC 2008-G05 Read MPEC 2008-G07


Our Web policy. Index to the CBAT/MPC/ICQ pages.


Valid HTML 4.01!